Weather History for KHYR - February, 2013

Change the Weather History Date:

Tuesday, February 5, 2013

  Actual Average Record
Temperature  
Mean Temperature 8 °F -  
Max Temperature 21 °F 27 °F 53 °F (2005)
Min Temperature -6 °F 1 °F -27 °F (2007)
Degree Days  
Heating Degree Days 57    
Moisture  
Dew Point 7 °F    
Average Humidity 80    
Maximum Humidity 93    
Minimum Humidity 52    
Precipitation  
Precipitation 0.06 in - - ()
Sea Level Pressure  
Sea Level Pressure 29.79 in    
Wind  
Wind Speed 5 mph (SSW)    
Max Wind Speed 9 mph    
Max Gust Speed -    
Visibility 4 miles    
Events Snow    
Averages and records for this station are not official NWS values.
T = Trace of Precipitation, MM = Missing Value Source: NWS Daily Summary

Daily Weather History Graph

Daily Weather History Graph

Search for Another Location

Airport or City:

Trip Planner

Search our weather history database for the weather conditions in past years. The results will help you decide how hot, cold, wet, or windy it might be!

Date:

Astronomy

Feb. 05, 2013 Rise Set
Actual Time 7:22 AM CST 5:17 PM CST
Civil Twilight 6:51 AM CST 5:49 PM CST
Nautical Twilight 6:15 AM CST 6:24 PM CST
Astronomical Twilight 5:40 AM CST 6:59 PM CST
Moon 3:10 AM CST (2/5) 12:29 PM CST (2/5)
Length of Visible Light 10h 57m
Length of Day
9h 54m
Waning Crescent, 26% of the Moon is Illuminated
Feb 5
Waning Crescent
Feb 10
New
Feb 17
First Quarter
Feb 25
Full
Mar 4
Last Quarter

Hourly Weather History & Observations

Time (CST) Temp. Windchill Dew Point Humidity Pressure Visibility Wind Dir Wind Speed Gust Speed Precip Events Conditions
12:16 AM 8.6 °F -2.6 °F 3.2 °F 79% 29.72 in 1.2 mi South 6.9 mph - 0.01 in Snow Light Snow
12:26 AM 8.6 °F -3.7 °F 3.2 °F 79% 29.71 in 1.0 mi South 8.1 mph - 0.01 in Snow Light Snow
12:33 AM 10.4 °F -2.4 °F 5.0 °F 79% 29.71 in 1.2 mi South 9.2 mph - 0.01 in Snow Light Snow
12:44 AM 10.4 °F -1.5 °F 5.0 °F 79% 29.70 in 1.0 mi South 8.1 mph - 0.02 in Snow Light Snow
12:53 AM 10.0 °F -2.9 °F 5.0 °F 80% 29.77 in 1.0 mi South 9.2 mph - 0.02 in Snow Light Snow
1:04 AM 10.4 °F -1.5 °F 5.0 °F 79% 29.68 in 1.2 mi South 8.1 mph - 0.00 in Snow Light Snow
1:30 AM 10.4 °F 0.8 °F 6.8 °F 85% 29.66 in 1.0 mi SSW 5.8 mph - 0.01 in Snow Light Snow
1:39 AM 10.4 °F -1.5 °F 6.8 °F 85% 29.66 in 1.2 mi South 8.1 mph - 0.01 in Snow Light Snow
1:46 AM 10.4 °F 2.2 °F 6.8 °F 85% 29.67 in 0.8 mi SW 4.6 mph - 0.02 in Snow Light Snow
1:53 AM 10.9 °F 1.4 °F 7.0 °F 84% 29.75 in 0.8 mi South 5.8 mph - 0.03 in Snow Light Snow
2:02 AM 10.4 °F 2.2 °F 6.8 °F 85% 29.68 in 1.2 mi SSW 4.6 mph - 0.01 in Snow Light Snow
2:14 AM 10.4 °F 0.8 °F 6.8 °F 85% 29.66 in 1.5 mi South 5.8 mph - 0.01 in Snow Light Snow
2:24 AM 10.4 °F 0.8 °F 6.8 °F 85% 29.66 in 2.5 mi South 5.8 mph - 0.01 in Snow Light Snow
2:31 AM 10.4 °F 0.8 °F 6.8 °F 85% 29.65 in 4.0 mi South 5.8 mph - 0.01 in Snow Light Snow
2:53 AM 10.9 °F -0.8 °F 7.0 °F 84% 29.71 in 5.0 mi South 8.1 mph - 0.01 in Snow Light Snow
3:11 AM 12.2 °F 2.9 °F 8.6 °F 85% 29.63 in 3.0 mi SSW 5.8 mph - 0.00 in Snow Light Snow
3:45 AM 12.2 °F 4.3 °F 8.6 °F 85% 29.63 in 4.0 mi SSW 4.6 mph - 0.00 in   Overcast
3:53 AM 12.9 °F 5.2 °F 9.0 °F 84% 29.70 in 4.0 mi South 4.6 mph - 0.00 in   Overcast
4:53 AM 14.0 °F 6.5 °F 10.0 °F 84% 29.69 in 4.0 mi South 4.6 mph - N/A   Overcast
5:53 AM 15.1 °F 9.4 °F 12.0 °F 88% 29.68 in 2.5 mi SSW 3.5 mph - N/A   Overcast
6:53 AM 16.0 °F - 12.9 °F 88% 29.70 in 2.5 mi Calm Calm - N/A   Overcast
7:43 AM 15.8 °F - 12.2 °F 86% 29.64 in 3.0 mi Calm Calm - N/A   Overcast
7:53 AM 16.0 °F - 12.9 °F 88% 29.73 in 2.0 mi Calm Calm - N/A   Overcast
8:04 AM 15.8 °F - 14.0 °F 93% 29.65 in 1.8 mi Calm Calm - N/A   Overcast
8:20 AM 15.8 °F - 14.0 °F 93% 29.66 in 2.0 mi Calm Calm - N/A   Overcast
9:03 AM 17.6 °F - 14.0 °F 86% 29.68 in 3.0 mi Calm Calm - N/A   Overcast
9:32 AM 17.6 °F - 14.0 °F 86% 29.69 in 3.0 mi Calm Calm - 0.00 in Snow Light Snow
10:18 AM 17.6 °F 12.3 °F 12.2 °F 79% 29.72 in 2.5 mi Variable 3.5 mph - 0.00 in Snow Light Snow
10:30 AM 17.6 °F 10.7 °F 12.2 °F 79% 29.73 in 3.0 mi Variable 4.6 mph - 0.00 in Snow Light Snow
10:53 AM 17.1 °F 8.7 °F 12.0 °F 81% 29.83 in 4.0 mi NNW 5.8 mph - 0.00 in Snow Light Snow
11:22 AM 17.6 °F 8.2 °F 12.2 °F 79% 29.77 in 2.0 mi Variable 6.9 mph - 0.00 in Snow Light Snow
11:36 AM 17.6 °F 8.2 °F 12.2 °F 79% 29.78 in 3.0 mi Variable 6.9 mph - 0.00 in Snow Light Snow
11:53 AM 17.1 °F 7.6 °F 10.9 °F 77% 29.87 in 6.0 mi Variable 6.9 mph - 0.00 in Snow Light Snow
12:53 PM 19.0 °F 9.0 °F 10.9 °F 71% 29.90 in 6.0 mi NW 8.1 mph - 0.00 in Snow Light Snow
1:53 PM 21.0 °F 14.6 °F 10.9 °F 65% 29.91 in 10.0 mi North 4.6 mph - 0.00 in   Mostly Cloudy
2:11 PM 21.2 °F 13.6 °F 10.4 °F 63% 29.84 in 10.0 mi North 5.8 mph - N/A   Partly Cloudy
2:53 PM 21.9 °F 15.7 °F 10.0 °F 60% 29.93 in 10.0 mi Variable 4.6 mph - N/A   Clear
3:53 PM 21.9 °F 14.5 °F 8.1 °F 55% 29.96 in 10.0 mi Variable 5.8 mph - N/A   Clear
4:53 PM 19.9 °F 14.9 °F 5.0 °F 52% 29.98 in 10.0 mi Variable 3.5 mph - N/A   Clear
5:53 PM 14.0 °F - 5.0 °F 67% 30.02 in 10.0 mi Calm Calm - N/A   Clear
6:53 PM 3.9 °F - -0.0 °F 84% 30.05 in 10.0 mi Calm Calm - N/A   Clear
7:53 PM -0.0 °F - -5.1 °F 79% 30.07 in 10.0 mi Calm Calm - N/A   Clear
8:53 PM -5.1 °F - -9.0 °F 83% 30.09 in 10.0 mi Calm Calm - N/A   Partly Cloudy
9:53 PM -5.1 °F - -9.0 °F 83% 30.12 in 10.0 mi Calm Calm - N/A   Mostly Cloudy
10:53 PM -5.1 °F - -11.0 °F 76% 30.12 in 10.0 mi Calm Calm - N/A   Scattered Clouds
11:53 PM -6.0 °F - -11.9 °F 75% 30.13 in 10.0 mi Calm Calm - N/A   Partly Cloudy